Tracking 25963 objects as of 12-Aug-2022
HD Live streaming from Space Station
objects crossing your sky now

RESURS O1 DEB

Track RESURS O1 DEB now!
10-day predictions


NORAD ID: 46893
Int'l Code: 1994-074BZ
Perigee: 591.1 km
Apogee: 593.9 km
Inclination: 97.9 °
Period: 96.4 minutes
Semi major axis: 6963 km
RCS: Unknown
Launch date: November 4, 1994
Source: Commonwealth of Independent States (former USSR) (CIS)
Launch site: TYURATAM MISSILE AND SPACE COMPLEX (TTMTR)

Note: This is SATELLITE DEBRIS
aabbcc
Your satellite tracking list
Your tracking list is empty




NASA's NSSDC Master Catalog

Two Line Element Set (TLE):
1 46893U 94074BZ  22223.12022767  .00014792  00000-0  13895-2 0  9993
2 46893  97.9102 277.2891 0002031  87.9367 272.2085 14.94035496 95681
Source of the keplerian elements: AFSPC